User: anonymous   Login
Location: Six Mile Lake
(44.9000°N, 79.7170°W)
Time: 10:40:10
(UTC-04:00)
Language:

UKube-1 - Orbit

View from above orbital plane
View from above orbital plane
View from above satellite
View from above satellite

Ground track
Ground track

The orbit data is extracted from the following two-line orbital elements,

1 40074U 14037F   22177.17592106  .00001628  00000-0  19586-3 0  9999
2 40074  98.3817  58.3018 0003041 270.8930  89.1928 14.85432015431362
Epoch (UTC): 26 June 2022 04:13:19
Eccentricity: 0.0003041
inclination: 98.3817°
perigee height: 610 km
apogee height: 614 km
right ascension of ascending node: 58.3018°
argument of perigee: 270.8930°
revolutions per day: 14.85432015
mean anomaly at epoch: 89.1928°
orbit number at epoch: 43136

The dashed part of the orbit path shows where the satellite is in the earth's shadow,  

DLR